Detroit Lakes, MN

6:56 PM CST on December 16, 2017 (GMT -0600)
Detroit Lakes

Weather History for KDTL - November, 2012

Change the Weather History Date:

Saturday, November 17, 2012

  Actual Average Record
Temperature  
Mean Temperature 40 °F -  
Max Temperature 46 °F 34 °F 68 °F (2001)
Min Temperature 33 °F 20 °F -9 °F (1959)
Degree Days  
Heating Degree Days 26    
Moisture  
Dew Point 34 °F    
Average Humidity 76    
Maximum Humidity 87    
Minimum Humidity 66    
Precipitation  
Precipitation 0.00 in - - ()
Sea Level Pressure  
Sea Level Pressure 30.08 in    
Wind  
Wind Speed 9 mph (SSE)    
Max Wind Speed 12 mph    
Max Gust Speed -    
Visibility 10 miles    
Events      
Averages and records for this station are not official NWS values.
T = Trace of Precipitation, MM = Missing Value Source: NWS Daily Summary

Daily Weather History Graph

Daily Weather History Graph

Search for Another Location

Airport or City:

Trip Planner

Search our weather history database for the weather conditions in past years. The results will help you decide how hot, cold, wet, or windy it might be!

Date:

Astronomy

Nov. 17, 2012 Rise Set
Actual Time 7:30 AM CST 4:46 PM CST
Civil Twilight 6:56 AM CST 5:20 PM CST
Nautical Twilight 6:19 AM CST 5:57 PM CST
Astronomical Twilight 5:43 AM CST 6:32 PM CST
Moon 11:15 AM CST 8:59 PM CST
Length of Visible Light 10h 23m
Length of Day
9h 16m
Waxing Crescent, 20% of the Moon is Illuminated
Nov 17
Waxing Crescent
Nov 20
First Quarter
Nov 28
Full
Dec 6
Last Quarter
Dec 13
New

Hourly Weather History & Observations

Time (CST) Temp. Windchill Dew Point Humidity Pressure Visibility Wind Dir Wind Speed Gust Speed Precip Events Conditions
12:12 AM 35.6 °F 27.5 °F 28.4 °F 75% 30.12 in 10.0 mi SSE 11.5 mph - N/A   Clear
12:33 AM 35.6 °F 27.5 °F 28.4 °F 75% 30.12 in 10.0 mi SSE 11.5 mph - N/A   Clear
12:53 AM 35.6 °F 28.6 °F 28.4 °F 75% 30.11 in 10.0 mi SSE 9.2 mph - N/A   Clear
1:12 AM 33.8 °F 26.4 °F 30.2 °F 87% 30.11 in 10.0 mi SSE 9.2 mph - N/A   Clear
1:33 AM 35.6 °F 29.2 °F 30.2 °F 81% 30.11 in 10.0 mi SSE 8.1 mph - N/A   Clear
1:52 AM 37.4 °F 30.8 °F 32.0 °F 81% 30.10 in 10.0 mi SSE 9.2 mph - N/A   Clear
2:13 AM 37.4 °F 30.3 °F 32.0 °F 81% 30.10 in 10.0 mi South 10.4 mph - N/A   Clear
2:33 AM 37.4 °F 30.8 °F 32.0 °F 81% 30.10 in 10.0 mi South 9.2 mph - N/A   Clear
2:52 AM 37.4 °F 31.4 °F 32.0 °F 81% 30.10 in 10.0 mi SSE 8.1 mph - N/A   Clear
3:13 AM 35.6 °F 29.2 °F 32.0 °F 87% 30.10 in 10.0 mi SSE 8.1 mph - N/A   Clear
3:33 AM 35.6 °F 28.6 °F 32.0 °F 87% 30.09 in 10.0 mi SSE 9.2 mph - N/A   Clear
3:52 AM 35.6 °F 28.6 °F 32.0 °F 87% 30.09 in 10.0 mi SSE 9.2 mph - N/A   Clear
4:13 AM 35.6 °F 28.6 °F 32.0 °F 87% 30.09 in 10.0 mi SSE 9.2 mph - N/A   Clear
4:33 AM 35.6 °F 28.6 °F 32.0 °F 87% 30.09 in 10.0 mi South 9.2 mph - N/A   Clear
4:52 AM 35.6 °F 28.6 °F 32.0 °F 87% 30.09 in 10.0 mi South 9.2 mph - N/A   Clear
5:13 AM 35.6 °F 29.2 °F 32.0 °F 87% 30.08 in 10.0 mi SSE 8.1 mph - N/A   Clear
5:33 AM 35.6 °F 31.7 °F 32.0 °F 87% 30.09 in 10.0 mi SSE 4.6 mph - N/A   Clear
5:52 AM 35.6 °F 29.9 °F 32.0 °F 87% 30.09 in 10.0 mi SSE 6.9 mph - N/A   Clear
6:13 AM 35.6 °F 29.2 °F 32.0 °F 87% 30.08 in 10.0 mi SSE 8.1 mph - N/A   Clear
6:32 AM 35.6 °F 29.2 °F 32.0 °F 87% 30.08 in 10.0 mi South 8.1 mph - N/A   Clear
6:53 AM 35.6 °F 29.2 °F 32.0 °F 87% 30.08 in 10.0 mi South 8.1 mph - N/A   Clear
7:13 AM 35.6 °F 29.9 °F 32.0 °F 87% 30.09 in 10.0 mi SSE 6.9 mph - N/A   Clear
7:32 AM 35.6 °F 29.2 °F 32.0 °F 87% 30.09 in 10.0 mi SSE 8.1 mph - N/A   Clear
7:52 AM 35.6 °F 29.2 °F 32.0 °F 87% 30.09 in 10.0 mi SSE 8.1 mph - N/A   Clear
8:13 AM 37.4 °F 30.8 °F 33.8 °F 87% 30.09 in 10.0 mi SSE 9.2 mph - N/A   Clear
8:32 AM 37.4 °F 31.4 °F 33.8 °F 87% 30.10 in 10.0 mi SSE 8.1 mph - N/A   Clear
8:52 AM 37.4 °F 31.4 °F 33.8 °F 87% 30.10 in 10.0 mi South 8.1 mph - N/A   Clear
9:13 AM 39.2 °F 33.0 °F 33.8 °F 81% 30.10 in 10.0 mi SSE 9.2 mph - N/A   Clear
9:32 AM 41.0 °F 35.2 °F 33.8 °F 76% 30.11 in 10.0 mi South 9.2 mph - N/A   Clear
9:52 AM 41.0 °F 35.2 °F 33.8 °F 76% 30.11 in 10.0 mi South 9.2 mph - N/A   Clear
10:13 AM 42.8 °F 37.5 °F 33.8 °F 70% 30.11 in 10.0 mi South 9.2 mph - N/A   Clear
10:32 AM 42.8 °F 38.0 °F 33.8 °F 70% 30.12 in 10.0 mi South 8.1 mph - N/A   Clear
10:52 AM 42.8 °F 37.5 °F 33.8 °F 70% 30.12 in 10.0 mi South 9.2 mph - N/A   Clear
11:13 AM 44.6 °F 39.7 °F 33.8 °F 66% 30.11 in 10.0 mi South 9.2 mph - N/A   Clear
11:33 AM 44.6 °F 40.2 °F 33.8 °F 66% 30.11 in 10.0 mi South 8.1 mph - N/A   Clear
11:52 AM 44.6 °F 40.2 °F 33.8 °F 66% 30.10 in 10.0 mi South 8.1 mph - N/A   Clear
12:13 PM 44.6 °F 39.7 °F 35.6 °F 71% 30.10 in 10.0 mi South 9.2 mph - N/A   Clear
12:32 PM 44.6 °F 40.2 °F 33.8 °F 66% 30.09 in 10.0 mi SSE 8.1 mph - N/A   Clear
12:53 PM 44.6 °F 39.7 °F 33.8 °F 66% 30.09 in 10.0 mi SSE 9.2 mph - N/A   Clear
1:12 PM 44.6 °F 39.2 °F 33.8 °F 66% 30.09 in 10.0 mi SSE 10.4 mph - N/A   Clear
1:33 PM 44.6 °F 38.8 °F 35.6 °F 71% 30.08 in 10.0 mi SSE 11.5 mph - N/A   Clear
1:53 PM 44.6 °F 39.7 °F 35.6 °F 71% 30.08 in 10.0 mi SSE 9.2 mph - N/A   Clear
2:12 PM 46.4 °F 42.9 °F 35.6 °F 66% 30.07 in 10.0 mi SSE 6.9 mph - N/A   Clear
2:33 PM 46.4 °F 43.5 °F 35.6 °F 66% 30.07 in 10.0 mi SSE 5.8 mph - N/A   Clear
2:53 PM 46.4 °F 43.5 °F 35.6 °F 66% 30.07 in 10.0 mi SE 5.8 mph - N/A   Clear
3:12 PM 46.4 °F 42.9 °F 35.6 °F 66% 30.07 in 10.0 mi SE 6.9 mph - N/A   Clear
3:33 PM 46.4 °F 43.5 °F 35.6 °F 66% 30.07 in 10.0 mi SE 5.8 mph - N/A   Clear
3:53 PM 46.4 °F 44.3 °F 35.6 °F 66% 30.07 in 10.0 mi SE 4.6 mph - N/A   Clear
4:12 PM 46.4 °F 43.5 °F 35.6 °F 66% 30.07 in 10.0 mi SE 5.8 mph - N/A   Clear
4:33 PM 46.4 °F 44.3 °F 35.6 °F 66% 30.07 in 10.0 mi SE 4.6 mph - N/A   Clear
4:52 PM 44.6 °F 41.4 °F 35.6 °F 71% 30.08 in 10.0 mi SE 5.8 mph - N/A   Clear
5:12 PM 44.6 °F 41.4 °F 35.6 °F 71% 30.07 in 10.0 mi SE 5.8 mph - N/A   Clear
5:33 PM 44.6 °F 39.7 °F 35.6 °F 71% 30.07 in 10.0 mi SE 9.2 mph - N/A   Clear
5:53 PM 46.4 °F 41.9 °F 35.6 °F 66% 30.07 in 10.0 mi SE 9.2 mph - N/A   Clear
6:12 PM 44.6 °F 39.7 °F 35.6 °F 71% 30.07 in 10.0 mi SE 9.2 mph - N/A   Clear
6:33 PM 44.6 °F 39.7 °F 35.6 °F 71% 30.07 in 10.0 mi SE 9.2 mph - N/A   Clear
6:53 PM 44.6 °F 39.2 °F 35.6 °F 71% 30.07 in 10.0 mi SE 10.4 mph - N/A   Clear
7:12 PM 44.6 °F 39.7 °F 35.6 °F 71% 30.07 in 10.0 mi SE 9.2 mph - N/A   Clear
7:33 PM 42.8 °F 37.0 °F 35.6 °F 76% 30.07 in 10.0 mi SSE 10.4 mph - N/A   Clear
7:53 PM 42.8 °F 37.0 °F 35.6 °F 76% 30.06 in 10.0 mi SE 10.4 mph - N/A   Clear
8:12 PM 42.8 °F 38.0 °F 35.6 °F 76% 30.06 in 10.0 mi SSE 8.1 mph - N/A   Clear
8:53 PM 42.8 °F 37.5 °F 35.6 °F 76% 30.06 in 10.0 mi SSE 9.2 mph - N/A   Clear
9:12 PM 42.8 °F 37.0 °F 35.6 °F 76% 30.05 in 10.0 mi SE 10.4 mph - N/A   Clear
9:33 PM 42.8 °F 38.0 °F 35.6 °F 76% 30.05 in 10.0 mi SSE 8.1 mph - N/A   Clear
9:52 PM 42.8 °F 38.0 °F 35.6 °F 76% 30.05 in 10.0 mi SSE 8.1 mph - N/A   Clear
10:13 PM 42.8 °F 38.0 °F 35.6 °F 76% 30.05 in 10.0 mi SSE 8.1 mph - N/A   Clear
10:33 PM 42.8 °F 38.0 °F 35.6 °F 76% 30.04 in 10.0 mi SSE 8.1 mph - N/A   Clear
10:52 PM 42.8 °F 37.5 °F 35.6 °F 76% 30.04 in 10.0 mi SSE 9.2 mph - N/A   Clear
11:13 PM 42.8 °F 38.0 °F 35.6 °F 76% 30.04 in 10.0 mi SSE 8.1 mph - N/A   Clear
11:33 PM 41.0 °F 35.8 °F 35.6 °F 81% 30.04 in 10.0 mi SE 8.1 mph - N/A   Clear
11:52 PM 42.8 °F 38.0 °F 35.6 °F 76% 30.04 in 10.0 mi SE 8.1 mph - N/A   Clear